View Sortable Currents For Network
ASOSAWOSCoCoRaHSCOOPDCPISUSM
SchoolNetOtherSCANMy FavoritesBy StateRWIS
RWIS SurfaceRWIS TrafficRWIS SoilBy NWS WFO

Current AWOS Conditions

** This page will automatically refresh every five minutes.
Sorted by: (Dew Point)     Click on a column to sort it.

Add ID: Name: Ob Time   Wind [knots]   Rainfall
Temp (Hi / Lo) DewP Feels RH% Dir Speed Peak Gust
@ Time
Alti Vsby Hour Today
AWGWASHINGTON02:15 PM 77(77/68) 72 78 85 180 1624 @ 08:15 AM 29.71 10 0 0.43
CWICLINTON01:56 PM 75(76/68) 71 75 87 90 1022 @ 11:56 AM 29.75 10 0.01 0.68
MXOMONTICELLO MUNI02:15 PM 70(73/68) 70 73 100 70 820 @ 09:55 AM 29.75 2 0 0.35
IKVANKENY02:15 PM 72(72/70) 70 75 93 60 925 @ 03:55 AM 29.7 10 0 0.53
MUTMUSCATINE02:15 PM 77(77/70) 70 79 79 210 823 @ 08:15 AM 29.71 10 0
MPZMOUNT PLEASANT02:15 PM 79(79/70) 70 82 74 190 15G2021 @ 06:55 AM 29.71 10 0 0.4
OLZOELWEIN02:15 PM 70(72/68) 70 73 100 70 12G1821 @ 01:35 PM 29.79 6 0 0.8
EOKKEOKUK MUNI02:15 PM 72(75/70) 70 75 93 210 7G1525 @ 01:15 PM 29.73 2.5 0 0.38
DEHDECORAH02:15 PM 72(73/68) 70 75 93 60 717 @ 12:35 PM 29.83 7 0
PROPerry02:15 PM 70(76/62) 70 73 100 50 14G1820 @ 01:55 AM 29.71 2.5 0.04 1.8
VTIVINTON02:35 PM 73(74/71) 69 75 87 80 1124 @ 07:55 AM 29.74 10 0
CSQCRESTON02:15 PM 72(72/66) 68 74 87 70 528 @ 02:35 AM 29.69 10 0 0.6
IFAIowa Falls02:15 PM 72(73/69) 68 74 87 50 10G1527 @ 11:55 AM 29.78 10 0 1.29
SHLSHELDON02:15 PM 68(68/64) 68 70 100 20 1323 @ 09:55 AM 29.93 9 0 0.1
ICLCLARINDA02:15 PM 72(73/66) 68 74 87 340 11G1919 @ 12:15 AM 29.7 10 0 0.76
FSWFORT MADISON02:15 PM 73(75/70) 68 75 84 190 10G1719 @ 05:15 AM 29.74 10 0
BNWBOONE MUNI02:15 PM 70(72/68) 68 72 93 60 1625 @ 03:55 AM 29.72 9 0 1.06
TVKCenterville02:15 PM 73(75/68) 68 84 0 019 @ 02:15 AM 29.71 10 0 0.3
OXVKnoxville02:15 PM 73(75/68) 68 75 84 130 720 @ 02:55 AM 29.68 10 0 0.32
FXYForest City02:15 PM 70(72/68) 68 72 93 20 13G1627 @ 11:35 AM 29.85 10 0 1.21
CCYCHARLES CITY02:35 PM 70(72/68) 68 72 93 60 1026 @ 12:15 PM 29.82 3 0 0.32
HPTHampton02:15 PM 70(70/66) 68 72 93 50 11G1824 @ 11:55 AM 29.79 10 0 1.52
EBSWebster City02:15 PM 68(70/68) 68 100 @ 06:00 PM 29.76 1.5 0 2.59
TNUNEWTON MUNI02:15 PM 68(73/68) 68 70 100 40 4G1021 @ 07:35 AM 29.7 9 0 1.05
IIBINDEPENDENCE02:15 PM 71(75/70) 68 73 90 70 820 @ 08:15 AM 29.76 7 0.01 0.6
FFLFAIRFIELD02:15 PM 77(77/68) 68 79 74 190 10G1626 @ 04:35 AM 29.69 10 0
AIOATLANTIC02:15 PM 68(70/66) 68 70 100 10 17G2727 @ 02:15 PM 29.71 4 0 0.34
PEAPELLA02:15 PM 75(76/68) 67 77 76 170 519 @ 03:15 AM 29.7 10 0 0.0001
OOAOskaloosa02:15 PM 76(76/68) 67 77 74 210 922 @ 05:15 AM 29.69 10 0 0.15
I75Osceola02:15 PM 73(75/68) 67 75 81 130 724 @ 01:35 AM 29.68 5 0 0.45
GGIGrinnell02:35 PM 69(70/67) 67 71 93 50 723 @ 08:55 AM 29.72 10 0.08 0.84
CINCARROLL02:15 PM 66(70/64) 66 68 100 20 19G2535 @ 06:15 AM 29.76 2 0 3.29
CBFCOUNCIL BLUFFS02:15 PM 66(66/64) 66 68 100 360 19G2935 @ 07:35 AM 29.77 4 0 2.99
LRJLE MARS02:15 PM 72(72/64) 66 73 81 10 17G2325 @ 11:55 AM 29.92 10 0 0.33
HNRHARLAN02:15 PM 66(66/64) 66 68 100 360 19G2841 @ 07:35 AM 29.77 3 0 3.76
CAVCLARION02:15 PM 72(73/66) 66 73 81 40 9G1629 @ 10:15 AM 29.8 9 0 2
AXAALGONA02:15 PM 68(72/64) 66 70 93 30 16G2128 @ 10:55 AM 29.86 3 0 1.33
SDASHENANDOAH MUNI02:15 PM 68(68/66) 66 70 93 340 17G2729 @ 11:15 AM 29.72 10 0
CNCCHARITON02:15 PM 73(75/68) 66 74 79 180 1125 @ 01:35 AM 29.67 10 0 0.81
ORCOrange City02:15 PM 70(70/66) 66 72 87 10 1220 @ 10:15 AM 29.93 10 0 0.17
RDKRED OAK02:15 PM 68(68/66) 66 70 93 340 18G2428 @ 03:35 AM 29.71 10 0
FODFORT DODGE02:28 PM 68(71/65) 66 70 93 20 9G1526 @ 06:18 AM 29.8 10 0.04 4.7
CKPCherokee02:15 PM 66(67/64) 65 68 97 10 921 @ 08:15 AM 29.89 7 0 0.4
DNSDENISON02:15 PM 64(66/63) 64 66 100 10 16G2633 @ 10:15 AM 29.82 2 0 2.54
ADUAUDUBON02:15 PM 66(70/64) 64 67 93 340 14G2227 @ 07:35 AM 29.74 5 0.21 2.26
SLBStorm Lake02:15 PM 64(66/63) 63 65 97 30 15G2433 @ 11:15 AM 29.88 3 0 1.22